Houma, LA

8:29 AM CDT on April 20, 2018 (GMT -0500)
Houma-terrebonne

Weather History for KHUM - January, 2014

Change the Weather History Date:

Saturday, January 4, 2014

  Actual Average Record
Temperature  
Mean Temperature 45 °F -  
Max Temperature 62 °F 62 °F 79 °F (1950)
Min Temperature 28 °F 42 °F 23 °F (2001)
Degree Days  
Heating Degree Days 20    
Moisture  
Dew Point 39 °F    
Average Humidity 80    
Maximum Humidity 90    
Minimum Humidity 52    
Precipitation  
Precipitation 0.00 in - - ()
Sea Level Pressure  
Sea Level Pressure 30.15 in    
Wind  
Wind Speed 2 mph (ENE)    
Max Wind Speed 8 mph    
Max Gust Speed -    
Visibility 8 miles    
Events      
Averages and records for this station are not official NWS values.
T = Trace of Precipitation, MM = Missing Value Source: NWS Daily Summary

Daily Weather History Graph

Daily Weather History Graph

Search for Another Location

Airport or City:

Astronomy

Jan. 04, 2014 Rise Set
Actual Time 6:58 AM CST 5:17 PM CST
Civil Twilight 6:32 AM CST 5:43 PM CST
Nautical Twilight 6:02 AM CST 6:12 PM CST
Astronomical Twilight 5:33 AM CST 6:41 PM CST
Moon 9:21 AM CST (1/4) 9:16 PM CST (1/4)
Length of Visible Light 11h 11m
Length of Day
10h 19m
Waxing Crescent, 15% of the Moon is Illuminated
Jan 4
Waxing Crescent
Jan 7
First Quarter
Jan 15
Full
Jan 23
Last Quarter
Jan 30
New

Hourly Weather History & Observations

Time (CST) Temp. Windchill Dew Point Humidity Pressure Visibility Wind Dir Wind Speed Gust Speed Precip Events Conditions
12:15 AM 29.3 °F - 26.8 °F 90% 30.28 in 7.0 mi Calm Calm - N/A   Clear
12:35 AM 29.1 °F - 25.7 °F 87% 30.27 in 10.0 mi Calm Calm - N/A   Clear
12:55 AM 28.9 °F - 26.1 °F 89% 30.26 in 10.0 mi Calm Calm - N/A   Clear
1:15 AM 29.1 °F - 26.1 °F 88% 30.25 in 10.0 mi Calm Calm - N/A   Clear
1:35 AM 28.8 °F - 26.1 °F 90% 30.25 in 10.0 mi Calm Calm - N/A   Clear
1:55 AM 29.3 °F - 26.8 °F 90% 30.25 in 10.0 mi Calm Calm - N/A   Clear
2:15 AM 29.3 °F - 26.6 °F 90% 30.24 in 10.0 mi Calm Calm - N/A   Clear
2:35 AM 30.4 °F 26.9 °F 27.7 °F 90% 30.24 in 10.0 mi North 3.5 mph - N/A   Clear
2:55 AM 30.9 °F 26.2 °F 27.5 °F 87% 30.23 in 10.0 mi North 4.6 mph - N/A   Clear
3:15 AM 31.1 °F - 27.7 °F 87% 30.23 in 10.0 mi Calm Calm - N/A   Clear
3:35 AM 29.8 °F - 26.6 °F 88% 30.23 in 10.0 mi Calm Calm - N/A   Clear
3:55 AM 29.3 °F - 26.4 °F 89% 30.23 in 7.0 mi Calm Calm - N/A   Clear
4:15 AM 30.0 °F 26.5 °F 27.5 °F 90% 30.23 in 10.0 mi NNW 3.5 mph - N/A   Clear
4:35 AM 31.1 °F 26.4 °F 28.0 °F 88% 30.23 in 10.0 mi North 4.6 mph - N/A   Clear
4:55 AM 30.4 °F - 26.8 °F 86% 30.22 in 10.0 mi Calm Calm - N/A   Clear
5:50 AM 32.0 °F - 28.4 °F 87% 30.22 in 7.0 mi Calm Calm - N/A   Clear
6:50 AM 33.8 °F 29.6 °F 30.2 °F 87% 30.23 in 7.0 mi NNE 4.6 mph - N/A   Scattered Clouds
7:50 AM 37.4 °F 32.8 °F 30.2 °F 75% 30.25 in 7.0 mi NNE 5.8 mph - N/A   Mostly Cloudy
8:50 AM 42.8 °F 38.6 °F 37.4 °F 81% 30.24 in 7.0 mi ENE 6.9 mph - N/A   Mostly Cloudy
9:50 AM 46.4 °F 42.9 °F 39.2 °F 76% 30.24 in 7.0 mi NE 6.9 mph - N/A   Mostly Cloudy
10:50 AM 50.0 °F - 39.2 °F 66% 30.22 in 7.0 mi NE 5.8 mph - N/A   Mostly Cloudy
11:50 AM 55.4 °F - 42.8 °F 63% 30.18 in 7.0 mi NE 6.9 mph - N/A   Mostly Cloudy
12:50 PM 60.8 °F - 42.8 °F 52% 30.14 in 7.0 mi NE 5.8 mph - N/A   Mostly Cloudy
1:55 PM 62.6 °F - 44.6 °F 52% 30.11 in 7.0 mi NE 5.8 mph - N/A   Mostly Cloudy
2:50 PM 62.6 °F - 44.6 °F 52% 30.11 in 7.0 mi ESE 5.8 mph - N/A   Mostly Cloudy
3:50 PM 62.6 °F - 44.6 °F 52% 30.09 in 7.0 mi ENE 4.6 mph - N/A   Mostly Cloudy
4:50 PM 59.0 °F - - N/A% 30.09 in 7.0 mi East 6.9 mph - N/A   Mostly Cloudy
5:50 PM 55.4 °F - 46.4 °F 72% 30.09 in 7.0 mi East 6.9 mph - N/A   Mostly Cloudy
6:15 PM 55.4 °F - 46.0 °F 71% 30.08 in 10.0 mi East 8.1 mph - N/A   Overcast
6:35 PM 54.5 °F - 46.4 °F 74% 30.08 in 10.0 mi East 5.8 mph - N/A   Overcast
6:50 PM 53.6 °F - 46.4 °F 77% 30.08 in 7.0 mi East 6.9 mph - N/A   Mostly Cloudy
6:55 PM 53.8 °F - 46.8 °F 77% 30.07 in 7.0 mi East 5.8 mph - N/A   Overcast
7:15 PM 53.2 °F - 47.3 °F 80% 30.07 in 10.0 mi East 5.8 mph - N/A   Overcast
7:35 PM 53.1 °F - 47.5 °F 81% 30.07 in 7.0 mi East 6.9 mph - N/A   Overcast
7:55 PM 53.6 °F - 47.8 °F 81% 30.07 in 10.0 mi East 4.6 mph - N/A   Overcast
8:15 PM 53.6 °F - 48.2 °F 82% 30.07 in 7.0 mi East 4.6 mph - N/A   Overcast
8:35 PM 53.6 °F - 48.2 °F 82% 30.06 in 7.0 mi East 4.6 mph - N/A   Overcast
8:55 PM 53.6 °F - 48.4 °F 82% 30.05 in 7.0 mi East 6.9 mph - N/A   Overcast
9:15 PM 53.2 °F - 48.0 °F 82% 30.05 in 7.0 mi ESE 4.6 mph - N/A   Overcast
9:35 PM 52.7 °F - 47.5 °F 82% 30.05 in 7.0 mi ESE 4.6 mph - N/A   Overcast
9:55 PM 52.2 °F - 47.3 °F 83% 30.06 in 7.0 mi Calm Calm - N/A   Overcast
10:15 PM 51.6 °F - 47.3 °F 85% 30.05 in 10.0 mi Calm Calm - N/A   Overcast
10:35 PM 51.3 °F - 47.3 °F 86% 30.04 in 7.0 mi Calm Calm - N/A   Overcast
10:55 PM 51.3 °F - 47.3 °F 86% 30.04 in 7.0 mi Calm Calm - N/A   Overcast
11:15 PM 51.8 °F - 47.7 °F 86% 30.04 in 7.0 mi Calm Calm - N/A   Overcast
11:35 PM 52.2 °F - 48.2 °F 86% 30.04 in 7.0 mi Calm Calm - N/A   Overcast
11:55 PM 52.9 °F - 48.4 °F 85% 30.03 in 7.0 mi Calm Calm - N/A   Overcast